When you browse on this site, cookies collect data to enhance your experience and personalize the content and advertising you see.
Visit our Privacy Policy to learn more. By continuing to use the site, you agree to this use of cookies and data.
  • In France
  • List of Countries
  • For 7 days
  • Water Temperature
  • Weather Map
  • Weather Widgets
  • user-avatar
    Login

    Hourly Weather Brest

    Today, 19 September, Thursday

    Time Temperature Precipitation Wind Pressure Humidity
    00:00 +6°C° 0 mm 4 mps 749 mmHg 85%
    01:00 +6°C° 0 mm 4 mps 750 mmHg 87%
    02:00 +5°C° 0 mm 4 mps 750 mmHg 88%
    03:00 +5°C° 0 mm 4 mps 750 mmHg 89%
    04:00 +5°C° 0 mm 4 mps 750 mmHg 90%
    05:00 +5°C° 0 mm 4 mps 750 mmHg 91%
    06:00 +5°C° 0 mm 4 mps 750 mmHg 88%
    07:00 +6°C° 0 mm 5 mps 751 mmHg 86%
    08:00 +7°C° 0 mm 5 mps 751 mmHg 83%
    09:00 +9°C° 0.1 mm 5 mps 751 mmHg 76%
    10:00 +10°C° 0.1 mm 5 mps 751 mmHg 69%
    11:00 +13°C° 0.1 mm 5 mps 751 mmHg 62%
    12:00 +13°C° 0.3 mm 5 mps 751 mmHg 59%
    13:00 +14°C° 0.3 mm 5 mps 751 mmHg 57%
    14:00 +14°C° 0 mm 6 mps 752 mmHg 56%
    15:00 +13°C° 0.2 mm 5 mps 752 mmHg 57%
    16:00 +13°C° 0.2 mm 5 mps 752 mmHg 58%
    17:00 +13°C° 0.2 mm 5 mps 752 mmHg 60%
    18:00 +12°C° 0 mm 4 mps 752 mmHg 64%
    19:00 +10°C° 0 mm 4 mps 752 mmHg 68%
    20:00 +9°C° 0 mm 3 mps 752 mmHg 72%
    21:00 +9°C° 0 mm 3 mps 752 mmHg 75%
    22:00 +8°C° 0 mm 3 mps 752 mmHg 77%
    23:00 +7°C° 0 mm 3 mps 752 mmHg 79%

    Tomorrow, 20 September, Friday

    Time Temperature Precipitation Wind Pressure Humidity
    00:00 +7°C° 0 mm 3 mps 753 mmHg 83%
    01:00 +5°C° 0 mm 3 mps 753 mmHg 88%
    02:00 +5°C° 0 mm 4 mps 753 mmHg 92%
    03:00 +5°C° 0 mm 4 mps 753 mmHg 93%
    04:00 +4°C° 0 mm 4 mps 753 mmHg 94%
    05:00 +4°C° 0 mm 4 mps 753 mmHg 94%
    06:00 +5°C° 0 mm 4 mps 753 mmHg 90%
    07:00 +5°C° 0 mm 4 mps 753 mmHg 86%
    08:00 +6°C° 0 mm 5 mps 754 mmHg 81%
    09:00 +7°C° 0.1 mm 5 mps 754 mmHg 73%
    10:00 +9°C° 0.1 mm 5 mps 754 mmHg 65%
    11:00 +10°C° 0.1 mm 6 mps 754 mmHg 58%
    12:00 +11°C° 0.1 mm 6 mps 754 mmHg 52%
    13:00 +11°C° 0.1 mm 6 mps 754 mmHg 47%
    14:00 +13°C° 0.1 mm 6 mps 754 mmHg 42%
    15:00 +11°C° 0.1 mm 6 mps 754 mmHg 46%
    16:00 +12°C° 0.1 mm 5 mps 754 mmHg 50%
    17:00 +12°C° 0.1 mm 5 mps 754 mmHg 54%
    18:00 +10°C° 0 mm 4 mps 754 mmHg 61%
    19:00 +9°C° 0 mm 3 mps 754 mmHg 69%
    20:00 +8°C° 0 mm 2 mps 754 mmHg 76%
    21:00 +8°C° 0 mm 2 mps 754 mmHg 79%
    22:00 +7°C° 0 mm 2 mps 754 mmHg 81%
    23:00 +7°C° 0 mm 2 mps 754 mmHg 83%

    Day after tomorrow, 21 September, Saturday

    Time Temperature Precipitation Wind Pressure Humidity
    00:00 +7°C° 0 mm 2 mps 754 mmHg 82%
    01:00 +7°C° 0 mm 2 mps 754 mmHg 81%
    02:00 +7°C° 0 mm 2 mps 754 mmHg 79%
    03:00 +7°C° 0.2 mm 2 mps 753 mmHg 81%
    04:00 +8°C° 0.2 mm 3 mps 753 mmHg 82%
    05:00 +8°C° 0.2 mm 3 mps 753 mmHg 83%
    06:00 +8°C° 0.3 mm 4 mps 753 mmHg 86%
    07:00 +8°C° 0.3 mm 4 mps 752 mmHg 88%
    08:00 +9°C° 0.3 mm 5 mps 752 mmHg 91%
    09:00 +10°C° 0.1 mm 5 mps 752 mmHg 88%
    10:00 +10°C° 0.1 mm 5 mps 752 mmHg 85%
    11:00 +11°C° 0.1 mm 6 mps 753 mmHg 83%
    12:00 +13°C° 0 mm 6 mps 753 mmHg 80%
    13:00 +14°C° 0 mm 6 mps 752 mmHg 77%
    14:00 +15°C° 0 mm 6 mps 752 mmHg 74%
    15:00 +14°C° 0 mm 6 mps 752 mmHg 75%
    16:00 +14°C° 0 mm 5 mps 752 mmHg 76%
    17:00 +14°C° 0 mm 5 mps 752 mmHg 76%
    18:00 +13°C° 0 mm 4 mps 752 mmHg 78%
    19:00 +13°C° 0 mm 4 mps 752 mmHg 79%
    20:00 +12°C° 0 mm 3 mps 752 mmHg 80%
    21:00 +11°C° 0 mm 3 mps 752 mmHg 83%
    22:00 +11°C° 0 mm 3 mps 752 mmHg 86%
    23:00 +10°C° 0 mm 3 mps 752 mmHg 89%

    22 September, Sunday

    Time Temperature Precipitation Wind Pressure Humidity
    00:00 +10°C° 0 mm 3 mps 752 mmHg 91%
    01:00 +9°C° 0 mm 3 mps 752 mmHg 92%
    02:00 +9°C° 0 mm 3 mps 752 mmHg 93%
    03:00 +9°C° 0 mm 3 mps 752 mmHg 94%
    04:00 +8°C° 0 mm 3 mps 752 mmHg 94%
    05:00 +8°C° 0 mm 3 mps 752 mmHg 95%
    06:00 +9°C° 0 mm 3 mps 751 mmHg 92%
    07:00 +10°C° 0 mm 3 mps 751 mmHg 89%
    08:00 +11°C° 0 mm 3 mps 751 mmHg 86%
    09:00 +13°C° 0 mm 3 mps 751 mmHg 78%
    10:00 +16°C° 0 mm 3 mps 751 mmHg 70%
    11:00 +18°C° 0 mm 4 mps 752 mmHg 63%
    12:00 +19°C° 0 mm 4 mps 751 mmHg 59%
    13:00 +20°C° 0 mm 4 mps 751 mmHg 56%
    14:00 +21°C° 0 mm 4 mps 751 mmHg 53%
    15:00 +21°C° 0 mm 3 mps 750 mmHg 54%
    16:00 +20°C° 0 mm 3 mps 750 mmHg 56%
    17:00 +20°C° 0 mm 2 mps 750 mmHg 58%
    18:00 +18°C° 0 mm 2 mps 750 mmHg 64%
    19:00 +17°C° 0 mm 2 mps 750 mmHg 69%
    20:00 +15°C° 0 mm 1 mps 749 mmHg 75%
    21:00 +14°C° 0 mm 1 mps 749 mmHg 76%
    22:00 +14°C° 0 mm 1 mps 749 mmHg 78%
    23:00 +14°C° 0 mm 1 mps 749 mmHg 80%

    23 September, Monday

    Time Temperature Precipitation Wind Pressure Humidity
    00:00 +13°C° 0 mm 1 mps 749 mmHg 81%
    01:00 +13°C° 0 mm 1 mps 750 mmHg 82%
    02:00 +11°C° 0 mm 0 mps 750 mmHg 83%
    03:00 +12°C° 0 mm 1 mps 749 mmHg 85%
    04:00 +12°C° 0 mm 1 mps 749 mmHg 87%
    05:00 +10°C° 0 mm 2 mps 749 mmHg 89%
    06:00 +12°C° 0 mm 2 mps 749 mmHg 87%
    07:00 +11°C° 0 mm 3 mps 749 mmHg 85%
    08:00 +12°C° 0 mm 3 mps 749 mmHg 83%
    09:00 +13°C° 0 mm 3 mps 749 mmHg 76%
    10:00 +16°C° 0 mm 3 mps 749 mmHg 70%
    11:00 +18°C° 0 mm 4 mps 749 mmHg 63%
    12:00 +19°C° 0 mm 4 mps 748 mmHg 59%
    13:00 +20°C° 0 mm 4 mps 748 mmHg 55%
    14:00 +21°C° 0 mm 4 mps 748 mmHg 51%
    15:00 +21°C° 0 mm 3 mps 747 mmHg 52%
    16:00 +20°C° 0 mm 3 mps 747 mmHg 54%
    17:00 +20°C° 0 mm 3 mps 747 mmHg 55%
    18:00 +18°C° 0 mm 2 mps 747 mmHg 62%
    19:00 +16°C° 0 mm 2 mps 747 mmHg 69%
    20:00 +14°C° 0 mm 2 mps 747 mmHg 76%
    21:00 +13°C° 0 mm 2 mps 747 mmHg 79%
    22:00 +13°C° 0 mm 2 mps 747 mmHg 83%
    23:00 +12°C° 0 mm 2 mps 747 mmHg 86%

    24 September, Tuesday

    Time Temperature Precipitation Wind Pressure Humidity
    00:00 +12°C° 0 mm 2 mps 746 mmHg 88%
    01:00 +10°C° 0 mm 2 mps 746 mmHg 90%
    02:00 +10°C° 0 mm 2 mps 746 mmHg 92%
    03:00 +10°C° 0 mm 2 mps 746 mmHg 93%
    04:00 +9°C° 0 mm 2 mps 746 mmHg 94%
    05:00 +9°C° 0 mm 2 mps 746 mmHg 95%
    06:00 +10°C° 0 mm 2 mps 746 mmHg 92%
    07:00 +10°C° 0 mm 2 mps 746 mmHg 89%
    08:00 +12°C° 0 mm 2 mps 746 mmHg 87%
    09:00 +14°C° 0 mm 2 mps 746 mmHg 80%
    10:00 +15°C° 0 mm 2 mps 746 mmHg 74%
    11:00 +17°C° 0 mm 2 mps 747 mmHg 68%
    12:00 +18°C° 0 mm 2 mps 747 mmHg 67%
    13:00 +18°C° 0 mm 2 mps 746 mmHg 66%
    14:00 +19°C° 0 mm 2 mps 746 mmHg 64%
    15:00 +18°C° 0 mm 2 mps 746 mmHg 66%
    16:00 +19°C° 0 mm 1 mps 746 mmHg 67%
    17:00 +19°C° 0 mm 1 mps 747 mmHg 69%
    18:00 +17°C° 0 mm 2 mps 747 mmHg 70%
    19:00 +16°C° 0 mm 2 mps 747 mmHg 72%
    20:00 +14°C° 0 mm 3 mps 747 mmHg 74%
    21:00 +13°C° 0 mm 3 mps 747 mmHg 75%
    22:00 +12°C° 0 mm 3 mps 747 mmHg 76%
    23:00 +11°C° 0 mm 3 mps 747 mmHg 76%
    Show more